Year,Month,Day,Hour,Minute,Value (Times are PST for windgust in km/hr)
2021,07,07,00,00,1.60
2021,07,07,00,04,1.60
2021,07,07,00,05,1.60
2021,07,07,00,09,1.60
2021,07,07,00,10,3.20
2021,07,07,00,11,1.60
2021,07,07,00,12,1.60
2021,07,07,00,13,3.20
2021,07,07,00,14,1.60
2021,07,07,00,15,1.60
2021,07,07,00,16,1.60
2021,07,07,00,17,1.60
2021,07,07,00,18,1.60
2021,07,07,00,31,1.60
2021,07,07,00,32,3.20
2021,07,07,00,33,3.20
2021,07,07,00,34,1.60
2021,07,07,00,35,3.20
2021,07,07,00,36,4.80
2021,07,07,00,37,4.80
2021,07,07,00,38,4.80
2021,07,07,00,39,4.80
2021,07,07,00,40,3.20
2021,07,07,00,41,3.20
2021,07,07,00,42,3.20
2021,07,07,00,43,1.60
2021,07,07,00,44,3.20
2021,07,07,00,45,3.20
2021,07,07,00,46,1.60
2021,07,07,00,47,1.60
2021,07,07,00,48,1.60
2021,07,07,00,49,1.60
2021,07,07,00,50,1.60
2021,07,07,00,51,1.60
2021,07,07,00,52,1.60
2021,07,07,00,53,1.60
2021,07,07,00,54,1.60
2021,07,07,00,55,3.20
2021,07,07,00,56,1.60
2021,07,07,00,57,1.60
2021,07,07,00,58,3.20
2021,07,07,00,59,1.60
2021,07,07,01,00,1.60
2021,07,07,01,01,1.60
2021,07,07,01,02,1.60
2021,07,07,01,03,1.60
2021,07,07,01,05,1.60
2021,07,07,01,10,1.60
2021,07,07,01,24,1.60
2021,07,07,01,30,1.60
2021,07,07,01,31,3.20
2021,07,07,01,32,4.80
2021,07,07,01,33,4.80
2021,07,07,01,34,4.80
2021,07,07,01,35,3.20
2021,07,07,01,36,3.20
2021,07,07,01,37,3.20
2021,07,07,01,38,3.20
2021,07,07,01,39,4.80
2021,07,07,01,40,3.20
2021,07,07,01,41,3.20
2021,07,07,01,42,3.20
2021,07,07,01,43,3.20
2021,07,07,01,44,3.20
2021,07,07,01,45,3.20
2021,07,07,01,46,3.20
2021,07,07,01,47,1.60
2021,07,07,01,48,1.60
2021,07,07,01,49,1.60
2021,07,07,02,25,1.60
2021,07,07,02,26,1.60
2021,07,07,02,27,1.60
2021,07,07,02,28,1.60
2021,07,07,02,29,1.60
2021,07,07,02,30,3.20
2021,07,07,02,31,1.60
2021,07,07,02,32,1.60
2021,07,07,03,16,3.20
2021,07,07,03,17,3.20
2021,07,07,03,18,1.60
2021,07,07,03,19,1.60
2021,07,07,03,20,1.60
2021,07,07,03,21,1.60
2021,07,07,03,22,1.60
2021,07,07,03,23,1.60
2021,07,07,03,24,1.60
2021,07,07,03,25,1.60
2021,07,07,03,26,1.60
2021,07,07,03,27,1.60
2021,07,07,03,28,1.60
2021,07,07,03,39,1.60
2021,07,07,03,40,1.60
2021,07,07,03,41,1.60
2021,07,07,03,42,1.60
2021,07,07,03,43,1.60
2021,07,07,03,44,1.60
2021,07,07,03,47,1.60
2021,07,07,04,02,1.60
2021,07,07,04,03,1.60
2021,07,07,04,04,1.60
2021,07,07,04,08,3.20
2021,07,07,04,09,3.20
2021,07,07,04,10,1.60
2021,07,07,04,11,1.60
2021,07,07,04,12,1.60
2021,07,07,04,13,1.60
2021,07,07,04,14,1.60
2021,07,07,04,16,1.60
2021,07,07,04,17,3.20
2021,07,07,04,18,1.60
2021,07,07,04,19,1.60
2021,07,07,04,20,1.60
2021,07,07,04,21,1.60
2021,07,07,04,22,3.20
2021,07,07,04,23,3.20
2021,07,07,04,24,3.20
2021,07,07,04,25,1.60
2021,07,07,04,28,1.60
2021,07,07,04,29,1.60
2021,07,07,04,30,1.60
2021,07,07,04,31,3.20
2021,07,07,04,32,1.60
2021,07,07,04,33,1.60
2021,07,07,04,34,1.60
2021,07,07,04,35,1.60
2021,07,07,04,36,1.60
2021,07,07,04,37,1.60
2021,07,07,04,43,1.60
2021,07,07,04,45,1.60
2021,07,07,04,46,3.20
2021,07,07,04,47,3.20
2021,07,07,04,48,3.20
2021,07,07,04,49,1.60
2021,07,07,04,50,1.60
2021,07,07,04,51,3.20
2021,07,07,04,52,3.20
2021,07,07,04,53,4.80
2021,07,07,04,54,4.80
2021,07,07,04,55,3.20
2021,07,07,04,56,3.20
2021,07,07,04,57,1.60
2021,07,07,04,58,1.60
2021,07,07,04,59,1.60
2021,07,07,05,00,1.60
2021,07,07,05,01,1.60
2021,07,07,05,02,1.60
2021,07,07,05,03,1.60
2021,07,07,05,04,1.60
2021,07,07,05,06,1.60
2021,07,07,05,07,1.60
2021,07,07,05,12,1.60
2021,07,07,05,13,1.60
2021,07,07,05,14,1.60
2021,07,07,05,15,1.60
2021,07,07,05,35,1.60
2021,07,07,05,37,3.20
2021,07,07,05,38,1.60
2021,07,07,05,39,1.60
2021,07,07,05,43,1.60
2021,07,07,05,45,3.20
2021,07,07,05,46,1.60
2021,07,07,05,47,1.60
2021,07,07,05,48,3.20
2021,07,07,05,49,1.60
2021,07,07,05,50,1.60
2021,07,07,05,51,1.60
2021,07,07,05,52,1.60
2021,07,07,05,53,1.60
2021,07,07,05,54,1.60
2021,07,07,05,56,1.60
2021,07,07,06,16,1.60
2021,07,07,06,20,1.60
2021,07,07,06,21,1.60
2021,07,07,06,22,1.60
2021,07,07,06,23,3.20
2021,07,07,06,24,1.60
2021,07,07,06,25,1.60
2021,07,07,06,26,1.60
2021,07,07,06,27,1.60
2021,07,07,06,28,1.60
2021,07,07,06,29,1.60
2021,07,07,06,30,3.20
2021,07,07,06,31,3.20
2021,07,07,06,32,1.60
2021,07,07,06,33,1.60
2021,07,07,06,35,1.60
2021,07,07,06,40,3.20
2021,07,07,06,41,1.60
2021,07,07,06,42,1.60
2021,07,07,06,55,1.60
2021,07,07,07,11,1.60
2021,07,07,07,12,1.60
2021,07,07,07,14,1.60
2021,07,07,07,15,3.20
2021,07,07,07,16,1.60
2021,07,07,07,17,1.60
2021,07,07,07,19,3.20
2021,07,07,07,20,3.20
2021,07,07,07,21,3.20
2021,07,07,07,22,1.60
2021,07,07,07,23,1.60
2021,07,07,07,24,1.60
2021,07,07,07,33,1.60
2021,07,07,08,05,1.60
2021,07,07,08,06,1.60
2021,07,07,08,07,1.60
2021,07,07,08,08,3.20
2021,07,07,08,09,1.60
2021,07,07,08,11,1.60
2021,07,07,08,12,1.60
2021,07,07,08,13,1.60
2021,07,07,08,23,1.60
2021,07,07,08,24,1.60
2021,07,07,08,30,1.60
2021,07,07,08,34,3.20
2021,07,07,08,35,1.60
2021,07,07,08,36,1.60
2021,07,07,08,39,1.60
2021,07,07,08,40,1.60
2021,07,07,08,41,1.60
2021,07,07,08,52,1.60
2021,07,07,08,53,3.20
2021,07,07,08,54,3.20
2021,07,07,08,55,1.60
2021,07,07,08,56,1.60
2021,07,07,08,57,1.60
2021,07,07,08,58,1.60
2021,07,07,08,59,1.60
2021,07,07,09,00,1.60
2021,07,07,09,01,1.60
2021,07,07,09,02,1.60
2021,07,07,09,03,1.60
2021,07,07,09,04,1.60
2021,07,07,09,06,1.60
2021,07,07,09,08,1.60
2021,07,07,09,09,3.20
2021,07,07,09,10,3.20
2021,07,07,09,11,1.60
2021,07,07,09,13,1.60
2021,07,07,09,14,3.20
2021,07,07,09,15,3.20
2021,07,07,09,16,4.80
2021,07,07,09,17,3.20
2021,07,07,09,18,4.80
2021,07,07,09,19,1.60
2021,07,07,09,20,1.60
2021,07,07,09,22,1.60
2021,07,07,09,23,3.20
2021,07,07,09,24,1.60
2021,07,07,09,26,3.20
2021,07,07,09,27,3.20
2021,07,07,09,28,1.60
2021,07,07,09,29,1.60
2021,07,07,09,30,3.20
2021,07,07,09,31,1.60
2021,07,07,09,32,1.60
2021,07,07,09,33,1.60
2021,07,07,09,34,1.60
2021,07,07,09,35,1.60
2021,07,07,09,36,1.60
2021,07,07,09,37,3.20
2021,07,07,09,38,1.60
2021,07,07,09,39,1.60
2021,07,07,09,40,3.20
2021,07,07,09,41,1.60
2021,07,07,09,42,3.20
2021,07,07,09,43,3.20
2021,07,07,09,44,3.20
2021,07,07,09,45,3.20
2021,07,07,09,46,4.80
2021,07,07,09,47,4.80
2021,07,07,09,48,3.20
2021,07,07,09,49,1.60
2021,07,07,09,50,1.60
2021,07,07,09,51,4.80
2021,07,07,09,52,6.40
2021,07,07,09,53,11.30
2021,07,07,09,54,9.60
2021,07,07,09,55,11.30
2021,07,07,09,56,6.40
2021,07,07,09,57,8.10
2021,07,07,09,58,8.10
2021,07,07,09,59,4.80
2021,07,07,10,00,8.10
2021,07,07,10,01,4.80
2021,07,07,10,02,1.60
2021,07,07,10,03,3.20
2021,07,07,10,04,1.60
2021,07,07,10,05,3.20
2021,07,07,10,06,3.20
2021,07,07,10,07,1.60
2021,07,07,10,08,1.60
2021,07,07,10,09,3.20
2021,07,07,10,10,3.20
2021,07,07,10,11,3.20
2021,07,07,10,12,4.80
2021,07,07,10,13,4.80
2021,07,07,10,14,4.80
2021,07,07,10,15,6.40
2021,07,07,10,16,4.80
2021,07,07,10,17,3.20
2021,07,07,10,18,4.80
2021,07,07,10,19,4.80
2021,07,07,10,20,6.40
2021,07,07,10,21,6.40
2021,07,07,10,22,6.40
2021,07,07,10,23,6.40
2021,07,07,10,24,4.80
2021,07,07,10,25,6.40
2021,07,07,10,26,6.40
2021,07,07,10,27,6.40
2021,07,07,10,28,6.40
2021,07,07,10,29,4.80
2021,07,07,10,30,4.80
2021,07,07,10,31,4.80
2021,07,07,10,32,3.20
2021,07,07,10,33,6.40
2021,07,07,10,34,4.80
2021,07,07,10,35,3.20
2021,07,07,10,36,1.60
2021,07,07,10,37,1.60
2021,07,07,10,38,6.40
2021,07,07,10,39,6.40
2021,07,07,10,40,4.80
2021,07,07,10,41,3.20
2021,07,07,10,42,3.20
2021,07,07,10,43,3.20
2021,07,07,10,44,6.40
2021,07,07,10,45,4.80
2021,07,07,10,46,6.40
2021,07,07,10,47,4.80
2021,07,07,10,48,3.20
2021,07,07,10,49,1.60
2021,07,07,10,50,1.60
2021,07,07,10,51,4.80
2021,07,07,10,52,6.40
2021,07,07,10,53,3.20
2021,07,07,10,54,8.10
2021,07,07,10,55,1.60
2021,07,07,10,56,4.80
2021,07,07,10,57,3.20
2021,07,07,10,58,3.20
2021,07,07,10,59,14.50
2021,07,07,11,00,12.90
2021,07,07,11,01,16.10
2021,07,07,11,02,11.30
2021,07,07,11,03,6.40
2021,07,07,11,04,16.10
2021,07,07,11,05,14.50
2021,07,07,11,06,6.40
2021,07,07,11,07,9.60
2021,07,07,11,08,4.80
2021,07,07,11,09,4.80
2021,07,07,11,10,12.90
2021,07,07,11,11,9.60
2021,07,07,11,12,12.90
2021,07,07,11,13,16.10
2021,07,07,11,14,17.70
2021,07,07,11,15,12.90
2021,07,07,11,16,12.90
2021,07,07,11,17,11.30
2021,07,07,11,18,9.60
2021,07,07,11,19,19.30
2021,07,07,11,20,16.10
2021,07,07,11,21,16.10
2021,07,07,11,22,9.60
2021,07,07,11,23,11.30
2021,07,07,11,24,20.90
2021,07,07,11,25,17.70
2021,07,07,11,26,22.50
2021,07,07,11,27,24.20
2021,07,07,11,28,16.10
2021,07,07,11,29,19.30
2021,07,07,11,30,17.70
2021,07,07,11,31,17.70
2021,07,07,11,32,17.70
2021,07,07,11,33,12.90
2021,07,07,11,34,14.50
2021,07,07,11,35,14.50
2021,07,07,11,36,16.10
2021,07,07,11,37,19.30
2021,07,07,11,38,16.10
2021,07,07,11,39,19.30
2021,07,07,11,40,17.70
2021,07,07,11,41,16.10
2021,07,07,11,42,12.90
2021,07,07,11,43,14.50
2021,07,07,11,44,14.50
2021,07,07,11,45,19.30
2021,07,07,11,46,22.50
2021,07,07,11,47,22.50
2021,07,07,11,48,20.90
2021,07,07,11,49,22.50
2021,07,07,11,50,17.70
2021,07,07,11,51,16.10
2021,07,07,11,52,17.70
2021,07,07,11,53,22.50
2021,07,07,11,54,22.50
2021,07,07,11,55,12.90
2021,07,07,11,56,17.70
2021,07,07,11,57,16.10
2021,07,07,11,58,14.50
2021,07,07,11,59,19.30
2021,07,07,12,00,20.90
2021,07,07,12,01,16.10
2021,07,07,12,02,16.10
2021,07,07,12,03,17.70
2021,07,07,12,04,25.70
2021,07,07,12,05,17.70
2021,07,07,12,06,27.40
2021,07,07,12,07,25.70
2021,07,07,12,08,19.30
2021,07,07,12,09,14.50
2021,07,07,12,10,11.30
2021,07,07,12,11,14.50
2021,07,07,12,12,14.50
2021,07,07,12,13,25.70
2021,07,07,12,14,25.70
2021,07,07,12,15,27.40
2021,07,07,12,16,27.40
2021,07,07,12,17,19.30
2021,07,07,12,18,16.10
2021,07,07,12,19,12.90
2021,07,07,12,20,14.50
2021,07,07,12,21,16.10
2021,07,07,12,22,24.20
2021,07,07,12,23,19.30
2021,07,07,12,24,27.40
2021,07,07,12,25,20.90
2021,07,07,12,26,27.40
2021,07,07,12,27,27.40
2021,07,07,12,28,20.90
2021,07,07,12,29,17.70
2021,07,07,12,30,27.40
2021,07,07,12,31,29.00
2021,07,07,12,32,27.40
2021,07,07,12,33,19.30
2021,07,07,12,34,16.10
2021,07,07,12,35,27.40
2021,07,07,12,36,27.40
2021,07,07,12,37,27.40
2021,07,07,12,38,30.60
2021,07,07,12,39,20.90
2021,07,07,12,40,17.70
2021,07,07,12,41,24.20
2021,07,07,12,42,25.70
2021,07,07,12,43,24.20
2021,07,07,12,44,24.20
2021,07,07,12,45,33.80
2021,07,07,12,46,29.00
2021,07,07,12,47,27.40
2021,07,07,12,48,24.20
2021,07,07,12,49,22.50
2021,07,07,12,50,27.40
2021,07,07,12,51,24.20
2021,07,07,12,52,17.70
2021,07,07,12,53,12.90
2021,07,07,12,54,22.50
2021,07,07,12,55,20.90
2021,07,07,12,56,16.10
2021,07,07,12,57,14.50
2021,07,07,12,58,16.10
2021,07,07,12,59,17.70
2021,07,07,13,00,29.00
2021,07,07,13,01,30.60
2021,07,07,13,02,25.70
2021,07,07,13,03,25.70
2021,07,07,13,04,29.00
2021,07,07,13,05,25.70
2021,07,07,13,06,19.30
2021,07,07,13,07,30.60
2021,07,07,13,08,22.50
2021,07,07,13,09,17.70
2021,07,07,13,10,20.90
2021,07,07,13,11,20.90
2021,07,07,13,12,29.00
2021,07,07,13,13,17.70
2021,07,07,13,14,29.00
2021,07,07,13,15,17.70
2021,07,07,13,16,19.30
2021,07,07,13,17,12.90
2021,07,07,13,18,19.30
2021,07,07,13,19,22.50
2021,07,07,13,20,19.30
2021,07,07,13,21,20.90
2021,07,07,13,22,29.00
2021,07,07,13,23,24.20
2021,07,07,13,24,20.90
2021,07,07,13,25,32.20
2021,07,07,13,26,22.50
2021,07,07,13,27,16.10
2021,07,07,13,28,12.90
2021,07,07,13,29,14.50
2021,07,07,13,30,24.20
2021,07,07,13,31,22.50
2021,07,07,13,32,14.50
2021,07,07,13,33,24.20
2021,07,07,13,34,25.70
2021,07,07,13,35,29.00
2021,07,07,13,36,19.30
2021,07,07,13,37,17.70
2021,07,07,13,38,20.90
2021,07,07,13,39,24.20
2021,07,07,13,40,25.70
2021,07,07,13,41,22.50
2021,07,07,13,42,22.50
2021,07,07,13,43,22.50
2021,07,07,13,44,20.90
2021,07,07,13,45,17.70
2021,07,07,13,46,17.70
2021,07,07,13,47,22.50
2021,07,07,13,48,24.20
2021,07,07,13,49,25.70
2021,07,07,13,50,24.20
2021,07,07,13,51,14.50
2021,07,07,13,52,25.70
2021,07,07,13,53,24.20
2021,07,07,13,54,24.20
2021,07,07,13,55,19.30
2021,07,07,13,56,20.90
2021,07,07,13,57,19.30
2021,07,07,13,58,25.70
2021,07,07,13,59,16.10
2021,07,07,14,00,27.40
2021,07,07,14,01,27.40
2021,07,07,14,02,14.50
2021,07,07,14,03,12.90
2021,07,07,14,04,11.30
2021,07,07,14,05,20.90
2021,07,07,14,06,19.30
2021,07,07,14,07,17.70
2021,07,07,14,08,22.50
2021,07,07,14,09,12.90
2021,07,07,14,10,11.30
2021,07,07,14,11,17.70
2021,07,07,14,12,24.20
2021,07,07,14,13,9.60
2021,07,07,14,14,27.40
2021,07,07,14,15,27.40
2021,07,07,14,16,19.30
2021,07,07,14,17,17.70
2021,07,07,14,18,25.70
2021,07,07,14,19,30.60
2021,07,07,14,20,25.70
2021,07,07,14,21,27.40
2021,07,07,14,22,20.90
2021,07,07,14,23,19.30
2021,07,07,14,24,16.10
2021,07,07,14,25,27.40
2021,07,07,14,26,24.20
2021,07,07,14,27,20.90
2021,07,07,14,28,16.10
2021,07,07,14,29,24.20
2021,07,07,14,30,16.10
2021,07,07,14,31,16.10
2021,07,07,14,32,24.20
2021,07,07,14,33,25.70
2021,07,07,14,34,20.90
2021,07,07,14,35,27.40
2021,07,07,14,36,32.20
2021,07,07,14,37,25.70
2021,07,07,14,38,33.80
2021,07,07,14,39,35.40
2021,07,07,14,40,29.00
2021,07,07,14,41,25.70
2021,07,07,14,42,25.70
2021,07,07,14,43,33.80
2021,07,07,14,44,25.70
2021,07,07,14,45,24.20
2021,07,07,14,46,25.70
2021,07,07,14,47,20.90
2021,07,07,14,48,20.90
2021,07,07,14,49,16.10
2021,07,07,14,50,12.90
2021,07,07,14,51,16.10
2021,07,07,14,52,22.50
2021,07,07,14,53,20.90
2021,07,07,14,54,20.90
2021,07,07,14,55,20.90
2021,07,07,14,56,25.70
2021,07,07,14,57,22.50
2021,07,07,14,58,25.70
2021,07,07,14,59,35.40
2021,07,07,15,00,32.20
2021,07,07,15,01,20.90
2021,07,07,15,02,27.40
2021,07,07,15,03,27.40
2021,07,07,15,04,22.50
2021,07,07,15,05,29.00
2021,07,07,15,06,24.20
2021,07,07,15,07,27.40
2021,07,07,15,08,25.70
2021,07,07,15,09,14.50
2021,07,07,15,10,32.20
2021,07,07,15,11,19.30
2021,07,07,15,12,19.30
2021,07,07,15,13,29.00
2021,07,07,15,14,19.30
2021,07,07,15,15,22.50
2021,07,07,15,16,20.90
2021,07,07,15,17,20.90
2021,07,07,15,18,20.90
2021,07,07,15,19,17.70
2021,07,07,15,20,19.30
2021,07,07,15,21,20.90
2021,07,07,15,22,24.20
2021,07,07,15,23,20.90
2021,07,07,15,24,22.50
2021,07,07,15,25,12.90
2021,07,07,15,26,17.70
2021,07,07,15,27,16.10
2021,07,07,15,28,20.90
2021,07,07,15,29,16.10
2021,07,07,15,30,25.70
2021,07,07,15,31,20.90
2021,07,07,15,32,22.50
2021,07,07,15,33,24.20
2021,07,07,15,34,17.70
2021,07,07,15,35,19.30
2021,07,07,15,36,16.10
2021,07,07,15,37,17.70
2021,07,07,15,38,25.70
2021,07,07,15,39,24.20
2021,07,07,15,40,19.30
2021,07,07,15,41,14.50
2021,07,07,15,42,14.50
2021,07,07,15,43,19.30
2021,07,07,15,44,29.00
2021,07,07,15,45,24.20
2021,07,07,15,46,20.90
2021,07,07,15,47,33.80
2021,07,07,15,48,32.20
2021,07,07,15,49,24.20
2021,07,07,15,50,20.90
2021,07,07,15,51,16.10
2021,07,07,15,52,20.90
2021,07,07,15,53,29.00
2021,07,07,15,54,17.70
2021,07,07,15,55,29.00
2021,07,07,15,56,30.60
2021,07,07,15,57,29.00
2021,07,07,15,58,24.20
2021,07,07,15,59,22.50
2021,07,07,16,00,25.70
2021,07,07,16,01,22.50
2021,07,07,16,02,24.20
2021,07,07,16,03,32.20
2021,07,07,16,04,29.00
2021,07,07,16,05,27.40
2021,07,07,16,06,22.50
2021,07,07,16,07,22.50
2021,07,07,16,08,17.70
2021,07,07,16,09,20.90
2021,07,07,16,10,20.90
2021,07,07,16,11,27.40
2021,07,07,16,12,32.20
2021,07,07,16,13,29.00
2021,07,07,16,14,27.40
2021,07,07,16,15,27.40
2021,07,07,16,16,40.20
2021,07,07,16,17,30.60
2021,07,07,16,18,27.40
2021,07,07,16,19,30.60
2021,07,07,16,20,29.00
2021,07,07,16,21,33.80
2021,07,07,16,22,27.40
2021,07,07,16,23,30.60
2021,07,07,16,24,25.70
2021,07,07,16,25,25.70
2021,07,07,16,26,17.70
2021,07,07,16,27,17.70
2021,07,07,16,28,25.70
2021,07,07,16,29,24.20
2021,07,07,16,30,20.90
2021,07,07,16,31,27.40
2021,07,07,16,32,30.60
2021,07,07,16,33,24.20
2021,07,07,16,34,29.00
2021,07,07,16,35,22.50
2021,07,07,16,36,32.20
2021,07,07,16,37,20.90
2021,07,07,16,38,22.50
2021,07,07,16,39,24.20
2021,07,07,16,40,16.10
2021,07,07,16,41,27.40
2021,07,07,16,42,29.00
2021,07,07,16,43,35.40
2021,07,07,16,44,25.70
2021,07,07,16,45,25.70
2021,07,07,16,46,24.20
2021,07,07,16,47,20.90
2021,07,07,16,48,37.00
2021,07,07,16,49,33.80
2021,07,07,16,50,33.80
2021,07,07,16,51,27.40
2021,07,07,16,52,24.20
2021,07,07,16,53,19.30
2021,07,07,16,54,22.50
2021,07,07,16,55,20.90
2021,07,07,16,56,30.60
2021,07,07,16,57,29.00
2021,07,07,16,58,27.40
2021,07,07,16,59,25.70
2021,07,07,17,00,24.20
2021,07,07,17,01,25.70
2021,07,07,17,02,22.50
2021,07,07,17,03,30.60
2021,07,07,17,04,24.20
2021,07,07,17,05,27.40
2021,07,07,17,06,22.50
2021,07,07,17,07,27.40
2021,07,07,17,08,17.70
2021,07,07,17,09,22.50
2021,07,07,17,10,27.40
2021,07,07,17,11,32.20
2021,07,07,17,12,22.50
2021,07,07,17,13,25.70
2021,07,07,17,14,17.70
2021,07,07,17,15,16.10
2021,07,07,17,16,20.90
2021,07,07,17,17,20.90
2021,07,07,17,18,20.90
2021,07,07,17,19,24.20
2021,07,07,17,20,14.50
2021,07,07,17,21,22.50
2021,07,07,17,22,29.00
2021,07,07,17,23,29.00
2021,07,07,17,24,22.50
2021,07,07,17,25,25.70
2021,07,07,17,26,24.20
2021,07,07,17,27,20.90
2021,07,07,17,28,24.20
2021,07,07,17,29,22.50
2021,07,07,17,30,25.70
2021,07,07,17,31,27.40
2021,07,07,17,32,27.40
2021,07,07,17,33,17.70
2021,07,07,17,34,24.20
2021,07,07,17,35,27.40
2021,07,07,17,36,17.70
2021,07,07,17,37,19.30
2021,07,07,17,38,19.30
2021,07,07,17,39,22.50
2021,07,07,17,40,19.30
2021,07,07,17,41,25.70
2021,07,07,17,42,29.00
2021,07,07,17,43,22.50
2021,07,07,17,44,14.50
2021,07,07,17,45,24.20
2021,07,07,17,46,29.00
2021,07,07,17,47,14.50
2021,07,07,17,48,27.40
2021,07,07,17,49,22.50
2021,07,07,17,50,24.20
2021,07,07,17,51,24.20
2021,07,07,17,52,25.70
2021,07,07,17,53,19.30
2021,07,07,17,54,19.30
2021,07,07,17,55,17.70
2021,07,07,17,56,22.50
2021,07,07,17,57,22.50
2021,07,07,17,58,25.70
2021,07,07,17,59,11.30
2021,07,07,18,00,25.70
2021,07,07,18,01,17.70
2021,07,07,18,02,24.20
2021,07,07,18,03,16.10
2021,07,07,18,04,22.50
2021,07,07,18,05,16.10
2021,07,07,18,06,22.50
2021,07,07,18,07,33.80
2021,07,07,18,08,29.00
2021,07,07,18,09,17.70
2021,07,07,18,10,27.40
2021,07,07,18,11,24.20
2021,07,07,18,12,20.90
2021,07,07,18,13,24.20
2021,07,07,18,14,19.30
2021,07,07,18,15,22.50
2021,07,07,18,16,22.50
2021,07,07,18,17,25.70
2021,07,07,18,18,27.40
2021,07,07,18,19,25.70
2021,07,07,18,20,25.70
2021,07,07,18,21,25.70
2021,07,07,18,22,22.50
2021,07,07,18,23,25.70
2021,07,07,18,24,22.50
2021,07,07,18,25,27.40
2021,07,07,18,26,24.20
2021,07,07,18,27,22.50
2021,07,07,18,28,24.20
2021,07,07,18,29,20.90
2021,07,07,18,30,25.70
2021,07,07,18,31,16.10
2021,07,07,18,32,17.70
2021,07,07,18,33,14.50
2021,07,07,18,34,27.40
2021,07,07,18,35,24.20
2021,07,07,18,36,22.50
2021,07,07,18,37,20.90
2021,07,07,18,38,19.30
2021,07,07,18,39,19.30
2021,07,07,18,40,20.90
2021,07,07,18,41,19.30
2021,07,07,18,42,19.30
2021,07,07,18,43,14.50
2021,07,07,18,44,12.90
2021,07,07,18,45,22.50
2021,07,07,18,46,22.50
2021,07,07,18,47,19.30
2021,07,07,18,48,19.30
2021,07,07,18,49,17.70
2021,07,07,18,50,19.30
2021,07,07,18,51,14.50
2021,07,07,18,52,22.50
2021,07,07,18,53,17.70
2021,07,07,18,54,19.30
2021,07,07,18,55,17.70
2021,07,07,18,56,16.10
2021,07,07,18,57,22.50
2021,07,07,18,58,22.50
2021,07,07,18,59,24.20
2021,07,07,19,00,17.70
2021,07,07,19,01,12.90
2021,07,07,19,02,16.10
2021,07,07,19,03,17.70
2021,07,07,19,04,24.20
2021,07,07,19,05,22.50
2021,07,07,19,06,24.20
2021,07,07,19,07,25.70
2021,07,07,19,08,22.50
2021,07,07,19,09,24.20
2021,07,07,19,10,14.50
2021,07,07,19,11,16.10
2021,07,07,19,12,20.90
2021,07,07,19,13,14.50
2021,07,07,19,14,16.10
2021,07,07,19,15,16.10
2021,07,07,19,16,16.10
2021,07,07,19,17,14.50
2021,07,07,19,18,16.10
2021,07,07,19,19,17.70
2021,07,07,19,20,20.90
2021,07,07,19,21,17.70
2021,07,07,19,22,19.30
2021,07,07,19,23,24.20
2021,07,07,19,24,20.90
2021,07,07,19,25,17.70
2021,07,07,19,26,17.70
2021,07,07,19,27,16.10
2021,07,07,19,28,17.70
2021,07,07,19,29,17.70
2021,07,07,19,30,12.90
2021,07,07,19,31,9.60
2021,07,07,19,32,12.90
2021,07,07,19,33,17.70
2021,07,07,19,34,19.30
2021,07,07,19,35,16.10
2021,07,07,19,36,19.30
2021,07,07,19,37,19.30
2021,07,07,19,38,19.30
2021,07,07,19,39,17.70
2021,07,07,19,40,14.50
2021,07,07,19,41,12.90
2021,07,07,19,42,17.70
2021,07,07,19,43,14.50
2021,07,07,19,44,12.90
2021,07,07,19,45,12.90
2021,07,07,19,46,8.10
2021,07,07,19,47,16.10
2021,07,07,19,48,11.30
2021,07,07,19,49,12.90
2021,07,07,19,50,14.50
2021,07,07,19,51,17.70
2021,07,07,19,52,14.50
2021,07,07,19,53,19.30
2021,07,07,19,54,19.30
2021,07,07,19,55,9.60
2021,07,07,19,56,14.50
2021,07,07,19,57,16.10
2021,07,07,19,58,9.60
2021,07,07,19,59,9.60
2021,07,07,20,00,17.70
2021,07,07,20,01,8.10
2021,07,07,20,02,9.60
2021,07,07,20,03,9.60
2021,07,07,20,04,8.10
2021,07,07,20,05,11.30
2021,07,07,20,06,11.30
2021,07,07,20,07,6.40
2021,07,07,20,08,11.30
2021,07,07,20,09,9.60
2021,07,07,20,10,12.90
2021,07,07,20,11,9.60
2021,07,07,20,12,9.60
2021,07,07,20,13,16.10
2021,07,07,20,14,9.60
2021,07,07,20,15,11.30
2021,07,07,20,16,11.30
2021,07,07,20,17,19.30
2021,07,07,20,18,11.30
2021,07,07,20,19,11.30
2021,07,07,20,20,11.30
2021,07,07,20,21,8.10
2021,07,07,20,22,11.30
2021,07,07,20,23,14.50
2021,07,07,20,24,12.90
2021,07,07,20,25,8.10
2021,07,07,20,26,12.90
2021,07,07,20,27,11.30
2021,07,07,20,28,6.40
2021,07,07,20,29,6.40
2021,07,07,20,30,6.40
2021,07,07,20,31,6.40
2021,07,07,20,32,8.10
2021,07,07,20,33,8.10
2021,07,07,20,34,8.10
2021,07,07,20,35,8.10
2021,07,07,20,36,6.40
2021,07,07,20,37,12.90
2021,07,07,20,38,12.90
2021,07,07,20,39,9.60
2021,07,07,20,40,16.10
2021,07,07,20,41,12.90
2021,07,07,20,42,8.10
2021,07,07,20,43,19.30
2021,07,07,20,44,16.10
2021,07,07,20,45,14.50
2021,07,07,20,46,11.30
2021,07,07,20,47,9.60
2021,07,07,20,48,16.10
2021,07,07,20,49,12.90
2021,07,07,20,50,14.50
2021,07,07,20,51,11.30
2021,07,07,20,52,6.40
2021,07,07,20,53,12.90
2021,07,07,20,54,9.60
2021,07,07,20,55,6.40
2021,07,07,20,56,6.40
2021,07,07,20,57,9.60
2021,07,07,20,58,6.40
2021,07,07,20,59,12.90
2021,07,07,21,00,11.30
2021,07,07,21,01,9.60
2021,07,07,21,02,12.90
2021,07,07,21,03,11.30
2021,07,07,21,04,9.60
2021,07,07,21,05,11.30
2021,07,07,21,06,11.30
2021,07,07,21,07,9.60
2021,07,07,21,08,11.30
2021,07,07,21,09,8.10
2021,07,07,21,10,11.30
2021,07,07,21,11,11.30
2021,07,07,21,12,9.60
2021,07,07,21,13,16.10
2021,07,07,21,14,12.90
2021,07,07,21,15,9.60
2021,07,07,21,16,9.60
2021,07,07,21,17,9.60
2021,07,07,21,18,11.30
2021,07,07,21,19,11.30
2021,07,07,21,20,9.60
2021,07,07,21,21,4.80
2021,07,07,21,22,6.40
2021,07,07,21,23,8.10
2021,07,07,21,24,6.40
2021,07,07,21,25,8.10
2021,07,07,21,26,6.40
2021,07,07,21,27,11.30
2021,07,07,21,28,8.10
2021,07,07,21,29,8.10
2021,07,07,21,30,12.90
2021,07,07,21,31,11.30
2021,07,07,21,32,8.10
2021,07,07,21,33,16.10
2021,07,07,21,34,9.60
2021,07,07,21,35,9.60
2021,07,07,21,36,14.50
2021,07,07,21,37,11.30
2021,07,07,21,38,9.60
2021,07,07,21,39,6.40
2021,07,07,21,40,9.60
2021,07,07,21,41,9.60
2021,07,07,21,42,9.60
2021,07,07,21,43,3.20
2021,07,07,21,44,12.90
2021,07,07,21,45,11.30
2021,07,07,21,46,11.30
2021,07,07,21,47,9.60
2021,07,07,21,48,6.40
2021,07,07,21,49,4.80
2021,07,07,21,50,11.30
2021,07,07,21,51,12.90
2021,07,07,21,52,6.40
2021,07,07,21,53,4.80
2021,07,07,21,54,4.80
2021,07,07,21,55,3.20
2021,07,07,21,56,8.10
2021,07,07,21,57,6.40
2021,07,07,21,58,9.60
2021,07,07,21,59,12.90
2021,07,07,22,00,11.30
2021,07,07,22,01,9.60
2021,07,07,22,02,8.10
2021,07,07,22,03,6.40
2021,07,07,22,04,9.60
2021,07,07,22,05,14.50
2021,07,07,22,06,11.30
2021,07,07,22,07,11.30
2021,07,07,22,08,11.30
2021,07,07,22,09,8.10
2021,07,07,22,10,11.30
2021,07,07,22,11,11.30
2021,07,07,22,12,12.90
2021,07,07,22,13,12.90
2021,07,07,22,14,8.10
2021,07,07,22,15,6.40
2021,07,07,22,16,8.10
2021,07,07,22,17,9.60
2021,07,07,22,18,8.10
2021,07,07,22,19,8.10
2021,07,07,22,20,8.10
2021,07,07,22,21,8.10
2021,07,07,22,22,8.10
2021,07,07,22,23,3.20
2021,07,07,22,24,14.50
2021,07,07,22,25,8.10
2021,07,07,22,26,8.10
2021,07,07,22,27,8.10
2021,07,07,22,28,8.10
2021,07,07,22,29,11.30
2021,07,07,22,30,6.40
2021,07,07,22,31,9.60
2021,07,07,22,32,3.20
2021,07,07,22,33,6.40
2021,07,07,22,34,4.80
2021,07,07,22,35,6.40
2021,07,07,22,36,4.80
2021,07,07,22,37,3.20
2021,07,07,22,38,4.80
2021,07,07,22,39,1.60
2021,07,07,22,44,6.40
2021,07,07,22,45,6.40
2021,07,07,22,46,4.80
2021,07,07,22,47,4.80
2021,07,07,22,48,1.60
2021,07,07,22,49,3.20
2021,07,07,22,50,4.80
2021,07,07,22,51,3.20
2021,07,07,22,52,4.80
2021,07,07,22,53,3.20
2021,07,07,22,54,1.60
2021,07,07,22,55,3.20
2021,07,07,22,56,1.60
2021,07,07,22,57,3.20
2021,07,07,22,58,3.20
2021,07,07,22,59,6.40
2021,07,07,23,00,9.60